| time (UTC) | temp F | wind direction | speed MPH | gust MPH | rain 1hr in | rain 24hr in | rain mn in | humidity % | barometer mb |
| 20260506003256 | 70 | 139 | 4.0 | 8.0 | 0.00 | 0.00 | 0.00 | 51 | 1006.1 |
| 20260506002301 | 71 | 192 | 4.0 | 6.0 | 0.00 | 0.00 | 0.00 | 50 | 1005.8 |
| 20260506001756 | 71 | 136 | 3.0 | 6.0 | 0.00 | 0.00 | 0.00 | 50 | 1005.6 |
| 20260506001256 | 71 | 158 | 3.0 | 6.0 | 0.00 | 0.00 | 0.00 | 50 | 1005.4 |
| 20260506000802 | 72 | 207 | 3.0 | 6.0 | 0.00 | 0.00 | 0.00 | 49 | 1005.4 |
| 20260506000255 | 72 | 163 | 3.0 | 7.0 | 0.00 | 0.00 | 0.00 | 49 | 1005.4 |
| 20260505234752 | 73 | 232 | 4.0 | 7.0 | 0.00 | 0.00 | 0.00 | 48 | 1005.0 |
| 20260505234251 | 73 | 168 | 4.0 | 7.0 | 0.00 | 0.00 | 0.00 | 48 | 1005.0 |
| 20260505233753 | 73 | 169 | 4.0 | 9.0 | 0.00 | 0.00 | 0.00 | 48 | 1005.0 |
| 20260505232750 | 74 | 146 | 5.0 | 15.0 | 0.00 | 0.00 | 0.00 | 47 | 1004.8 |
| 20260505232250 | 74 | 113 | 6.0 | 16.0 | 0.00 | 0.00 | 0.00 | 47 | 1004.6 |
| 20260505231249 | 74 | 169 | 5.0 | 11.0 | 0.00 | 0.00 | 0.00 | 47 | 1004.6 |
| 20260505225749 | 75 | 169 | 5.0 | 10.0 | 0.00 | 0.00 | 0.00 | 45 | 1004.4 |
| 20260505225250 | 76 | 136 | 4.0 | 8.0 | 0.00 | 0.00 | 0.00 | 45 | 1004.3 |
| 20260505224749 | 76 | 144 | 4.0 | 8.0 | 0.00 | 0.00 | 0.00 | 45 | 1004.2 |
| 20260505224250 | 76 | 177 | 4.0 | 9.0 | 0.00 | 0.00 | 0.00 | 44 | 1004.1 |
| 20260505223751 | 76 | 152 | 3.0 | 11.0 | 0.00 | 0.00 | 0.00 | 44 | 1004.1 |
| 20260505223253 | 77 | 152 | 3.0 | 11.0 | 0.00 | 0.00 | 0.00 | 44 | 1003.9 |
| 20260505221748 | 77 | 134 | 6.0 | 12.0 | 0.00 | 0.00 | 0.00 | 42 | 1003.7 |
| 20260505221246 | 78 | 133 | 4.0 | 11.0 | 0.00 | 0.00 | 0.00 | 42 | 1003.8 |
| 20260505220747 | 78 | 153 | 3.0 | 8.0 | 0.00 | 0.00 | 0.00 | 42 | 1003.7 |
| 20260505220247 | 78 | 143 | 4.0 | 10.0 | 0.00 | 0.00 | 0.00 | 42 | 1003.5 |
| 20260505215246 | 78 | 180 | 4.0 | 8.0 | 0.00 | 0.00 | 0.00 | 42 | 1003.5 |
| 20260505214749 | 78 | 138 | 4.0 | 9.0 | 0.00 | 0.00 | 0.00 | 41 | 1003.4 |
| 20260505214244 | 79 | 135 | 4.0 | 9.0 | 0.00 | 0.00 | 0.00 | 40 | 1003.4 |
| 20260505213742 | 79 | 165 | 4.0 | 7.0 | 0.00 | 0.00 | 0.00 | 41 | 1003.4 |
| 20260505213244 | 79 | 164 | 3.0 | 9.0 | 0.00 | 0.00 | 0.00 | 40 | 1003.3 |
| 20260505212742 | 80 | 138 | 3.0 | 9.0 | 0.00 | 0.00 | 0.00 | 40 | 1003.2 |
| 20260505212242 | 80 | 140 | 6.0 | 15.0 | 0.00 | 0.00 | 0.00 | 39 | 1003.1 |
| 20260505211743 | 81 | 154 | 7.0 | 19.0 | 0.00 | 0.00 | 0.00 | 37 | 1003.1 |
| 20260505210742 | 81 | 197 | 6.0 | 13.0 | 0.00 | 0.00 | 0.00 | 37 | 1003.0 |
| 20260505210246 | 82 | 223 | 6.0 | 13.0 | 0.00 | 0.00 | 0.00 | 37 | 1003.0 |
| 20260505205739 | 82 | 138 | 6.0 | 11.0 | 0.00 | 0.00 | 0.00 | 36 | 1003.0 |
| 20260505205241 | 82 | 220 | 5.0 | 12.0 | 0.00 | 0.00 | 0.00 | 36 | 1002.9 |
| 20260505204740 | 82 | 155 | 7.0 | 19.0 | 0.00 | 0.00 | 0.00 | 35 | 1002.8 |
| 20260505204239 | 83 | 148 | 6.0 | 19.0 | 0.00 | 0.00 | 0.00 | 35 | 1002.7 |
| 20260505203741 | 83 | 141 | 7.0 | 17.0 | 0.00 | 0.00 | 0.00 | 35 | 1002.9 |
| 20260505203239 | 83 | 160 | 7.0 | 17.0 | 0.00 | 0.00 | 0.00 | 35 | 1003.0 |
| 20260505202739 | 83 | 166 | 6.0 | 13.0 | 0.00 | 0.00 | 0.00 | 35 | 1003.0 |
| 20260505201740 | 84 | 214 | 6.0 | 12.0 | 0.00 | 0.00 | 0.00 | 34 | 1003.1 |
| 20260505201235 | 84 | 194 | 5.0 | 12.0 | 0.00 | 0.00 | 0.00 | 35 | 1003.0 |
| 20260505200735 | 83 | 174 | 4.0 | 10.0 | 0.00 | 0.00 | 0.00 | 36 | 1003.0 |
| 20260505200236 | 83 | 167 | 4.0 | 18.0 | 0.00 | 0.00 | 0.00 | 36 | 1003.0 |
| 20260505195734 | 83 | 210 | 5.0 | 18.0 | 0.00 | 0.00 | 0.00 | 37 | 1003.0 |
| 20260505195235 | 83 | 201 | 5.0 | 16.0 | 0.00 | 0.00 | 0.00 | 37 | 1003.2 |
| 20260505194738 | 83 | 179 | 7.0 | 16.0 | 0.00 | 0.00 | 0.00 | 37 | 1003.1 |
| 20260505194235 | 83 | 165 | 6.0 | 16.0 | 0.00 | 0.00 | 0.00 | 36 | 1003.2 |
| 20260505193736 | 83 | 174 | 5.0 | 13.0 | 0.00 | 0.00 | 0.00 | 37 | 1003.0 |
| 20260505193237 | 83 | 138 | 5.0 | 13.0 | 0.00 | 0.00 | 0.00 | 36 | 1003.3 |
| 20260505192730 | 83 | 146 | 6.0 | 13.0 | 0.00 | 0.00 | 0.00 | 35 | 1003.3 |
| 20260505192230 | 83 | 157 | 6.0 | 17.0 | 0.00 | 0.00 | 0.00 | 35 | 1003.4 |
| 20260505191732 | 83 | 149 | 4.0 | 17.0 | 0.00 | 0.00 | 0.00 | 38 | 1003.5 |
| 20260505191232 | 82 | 155 | 4.0 | 11.0 | 0.00 | 0.00 | 0.00 | 40 | 1003.6 |
| 20260505190732 | 83 | 148 | 5.0 | 16.0 | 0.00 | 0.00 | 0.00 | 39 | 1003.7 |
| 20260505185734 | 82 | 213 | 6.0 | 15.0 | 0.00 | 0.00 | 0.00 | 38 | 1004.1 |
| 20260505184732 | 82 | 153 | 6.0 | 16.0 | 0.00 | 0.00 | 0.00 | 35 | 1003.9 |
| 20260505184227 | 82 | 149 | 7.0 | 16.0 | 0.00 | 0.00 | 0.00 | 36 | 1004.0 |
| 20260505183228 | 82 | 170 | 8.0 | 21.0 | 0.00 | 0.00 | 0.00 | 35 | 1004.3 |
| 20260505182228 | 83 | 243 | 6.0 | 16.0 | 0.00 | 0.00 | 0.00 | 35 | 1004.4 |
| 20260505181727 | 83 | 193 | 5.0 | 15.0 | 0.00 | 0.00 | 0.00 | 36 | 1004.4 |
| 20260505180728 | 83 | 166 | 7.0 | 20.0 | 0.00 | 0.00 | 0.00 | 36 | 1004.5 |
| 20260505180228 | 83 | 222 | 7.0 | 20.0 | 0.00 | 0.00 | 0.00 | 34 | 1004.5 |
| 20260505175721 | 83 | 231 | 7.0 | 15.0 | 0.00 | 0.00 | 0.00 | 36 | 1004.7 |
| 20260505175218 | 82 | 151 | 7.0 | 16.0 | 0.00 | 0.00 | 0.00 | 36 | 1004.6 |
| 20260505174727 | 83 | 235 | 7.0 | 16.0 | 0.00 | 0.00 | 0.00 | 35 | 1004.8 |
| 20260505174222 | 83 | 96 | 7.0 | 17.0 | 0.00 | 0.00 | 0.00 | 36 | 1004.7 |
| 20260505173218 | 82 | 182 | 6.0 | 14.0 | 0.00 | 0.00 | 0.00 | 36 | 1005.0 |
| 20260505172719 | 82 | 160 | 5.0 | 14.0 | 0.00 | 0.00 | 0.00 | 35 | 1005.2 |
| 20260505172217 | 82 | 178 | 5.0 | 13.0 | 0.00 | 0.00 | 0.00 | 36 | 1005.3 |
| 20260505171716 | 81 | 188 | 7.0 | 17.0 | 0.00 | 0.00 | 0.00 | 37 | 1005.5 |
| 20260505171215 | 81 | 141 | 6.0 | 17.0 | 0.00 | 0.00 | 0.00 | 37 | 1005.4 |
| 20260505170218 | 80 | 192 | 5.0 | 13.0 | 0.00 | 0.00 | 0.00 | 39 | 1005.7 |
| 20260505165715 | 80 | 186 | 6.0 | 15.0 | 0.00 | 0.00 | 0.00 | 38 | 1005.7 |
| 20260505165215 | 80 | 176 | 6.0 | 15.0 | 0.00 | 0.00 | 0.00 | 39 | 1005.8 |
| 20260505164714 | 80 | 201 | 6.0 | 12.0 | 0.00 | 0.00 | 0.00 | 40 | 1005.8 |
| 20260505164214 | 79 | 165 | 5.0 | 12.0 | 0.00 | 0.00 | 0.00 | 40 | 1006.0 |
| 20260505163715 | 79 | 236 | 5.0 | 12.0 | 0.00 | 0.00 | 0.00 | 41 | 1006.0 |
| 20260505163213 | 78 | 195 | 4.0 | 11.0 | 0.00 | 0.00 | 0.00 | 41 | 1006.2 |
| 20260505162713 | 78 | 152 | 5.0 | 10.0 | 0.00 | 0.00 | 0.00 | 43 | 1006.3 |
| 20260505162212 | 77 | 192 | 6.0 | 12.0 | 0.00 | 0.00 | 0.00 | 43 | 1006.6 |
| 20260505161710 | 77 | 169 | 6.0 | 12.0 | 0.00 | 0.00 | 0.00 | 43 | 1006.6 |
| 20260505161211 | 77 | 155 | 5.0 | 11.0 | 0.00 | 0.00 | 0.00 | 43 | 1006.9 |
| 20260505160709 | 76 | 168 | 5.0 | 13.0 | 0.00 | 0.00 | 0.00 | 44 | 1006.9 |
| 20260505160211 | 76 | 206 | 5.0 | 13.0 | 0.00 | 0.00 | 0.00 | 45 | 1007.1 |
| 20260505153203 | 74 | 214 | 5.0 | 11.0 | 0.00 | 0.00 | 0.00 | 47 | 1007.3 |
| 20260505152202 | 73 | 211 | 4.0 | 10.0 | 0.00 | 0.00 | 0.00 | 49 | 1007.4 |
| 20260505151656 | 73 | 224 | 4.0 | 9.0 | 0.00 | 0.00 | 0.00 | 50 | 1007.5 |
| 20260505151152 | 73 | 152 | 5.0 | 9.0 | 0.00 | 0.00 | 0.00 | 50 | 1007.5 |
| 20260505150653 | 72 | 150 | 5.0 | 12.0 | 0.00 | 0.00 | 0.00 | 50 | 1007.5 |
| 20260505150152 | 71 | 219 | 5.0 | 12.0 | 0.00 | 0.00 | 0.00 | 53 | 1007.6 |
| 20260505130140 | 66 | 135 | 4.0 | 11.0 | 0.00 | 0.00 | 0.00 | 58 | 1007.6 |
| 20260505124638 | 66 | 230 | 6.0 | 11.0 | 0.00 | 0.00 | 0.00 | 57 | 1007.7 |
| 20260505124139 | 65 | 224 | 5.0 | 15.0 | 0.00 | 0.00 | 0.00 | 58 | 1007.6 |
| 20260505123638 | 65 | 266 | 4.0 | 15.0 | 0.00 | 0.00 | 0.00 | 58 | 1007.8 |
| 20260505123133 | 65 | 196 | 5.0 | 11.0 | 0.00 | 0.00 | 0.00 | 59 | 1007.9 |
| 20260505122120 | 65 | 182 | 5.0 | 12.0 | 0.00 | 0.00 | 0.00 | 60 | 1007.7 |
| 20260505121615 | 64 | 223 | 5.0 | 12.0 | 0.00 | 0.00 | 0.00 | 60 | 1007.6 |
| 20260505121109 | 64 | 174 | 4.0 | 10.0 | 0.00 | 0.00 | 0.00 | 60 | 1007.5 |
| 20260505115552 | 62 | 175 | 4.0 | 8.0 | 0.00 | 0.00 | 0.00 | 63 | 1007.4 |
| 20260505115044 | 62 | 160 | 4.0 | 7.0 | 0.00 | 0.00 | 0.00 | 63 | 1007.6 |
| 20260505114539 | 62 | 202 | 4.0 | 10.0 | 0.00 | 0.00 | 0.00 | 64 | 1007.6 |
| 20260505113551 | 61 | 171 | 3.0 | 8.0 | 0.00 | 0.00 | 0.00 | 65 | 1007.6 |
| 20260505112539 | 60 | 260 | 4.0 | 8.0 | 0.00 | 0.00 | 0.00 | 66 | 1007.7 |
| 20260505112040 | 59 | 211 | 4.0 | 8.0 | 0.00 | 0.00 | 0.00 | 67 | 1007.7 |
| 20260505111539 | 59 | 163 | 3.0 | 8.0 | 0.00 | 0.00 | 0.00 | 68 | 1007.6 |
| 20260505111039 | 58 | 208 | 2.0 | 8.0 | 0.00 | 0.00 | 0.00 | 68 | 1007.7 |
| 20260505110539 | 58 | 211 | 3.0 | 6.0 | 0.00 | 0.00 | 0.00 | 69 | 1007.7 |
| 20260505102037 | 55 | 162 | 2.0 | 4.0 | 0.00 | 0.00 | 0.00 | 71 | 1007.7 |
| 20260505101531 | 55 | 181 | 1.0 | 3.0 | 0.00 | 0.00 | 0.00 | 71 | 1007.7 |
| 20260505101038 | 55 | 155 | 1.0 | 3.0 | 0.00 | 0.00 | 0.00 | 71 | 1007.7 |
| 20260505100519 | 55 | 196 | 1.0 | 3.0 | 0.00 | 0.00 | 0.00 | 71 | 1007.7 |
| 20260505100013 | 55 | 173 | 1.0 | 4.0 | 0.00 | 0.00 | 0.00 | 71 | 1007.6 |
| 20260505095507 | 55 | 166 | 2.0 | 4.0 | 0.00 | 0.00 | 0.00 | 71 | 1007.6 |
| 20260505095002 | 55 | 170 | 2.0 | 5.0 | 0.00 | 0.00 | 0.00 | 71 | 1007.6 |
| 20260505094456 | 55 | 165 | 1.0 | 5.0 | 0.00 | 0.00 | 0.00 | 71 | 1007.6 |
| 20260505093950 | 55 | 148 | 1.0 | 3.0 | 0.00 | 0.00 | 0.00 | 71 | 1007.7 |
| 20260505093445 | 55 | 163 | 1.0 | 4.0 | 0.00 | 0.00 | 0.00 | 70 | 1007.7 |
| 20260505092937 | 55 | 154 | 2.0 | 6.0 | 0.00 | 0.00 | 0.00 | 70 | 1007.7 |
| 20260505092430 | 55 | 166 | 2.0 | 6.0 | 0.00 | 0.00 | 0.00 | 70 | 1007.7 |
| 20260505091924 | 55 | 158 | 2.0 | 5.0 | 0.00 | 0.00 | 0.00 | 70 | 1007.7 |
| 20260505090913 | 55 | 169 | 2.0 | 4.0 | 0.00 | 0.00 | 0.00 | 69 | 1007.7 |
| 20260505085901 | 55 | 172 | 2.0 | 4.0 | 0.00 | 0.00 | 0.00 | 68 | 1007.7 |
| 20260505085354 | 55 | 171 | 2.0 | 4.0 | 0.00 | 0.00 | 0.00 | 68 | 1007.7 |
| 20260505084851 | 55 | 201 | 2.0 | 3.0 | 0.00 | 0.00 | 0.00 | 68 | 1007.8 |
| 20260505084345 | 55 | 172 | 1.0 | 3.0 | 0.00 | 0.00 | 0.00 | 68 | 1007.8 |
| 20260505083837 | 55 | 148 | 1.0 | 3.0 | 0.00 | 0.00 | 0.00 | 68 | 1007.8 |
| 20260505083332 | 55 | 165 | 1.0 | 3.0 | 0.00 | 0.00 | 0.00 | 68 | 1007.8 |
| 20260505082826 | 55 | 167 | 1.0 | 5.0 | 0.00 | 0.00 | 0.00 | 68 | 1007.8 |
| 20260505082322 | 55 | 186 | 1.0 | 5.0 | 0.00 | 0.00 | 0.00 | 68 | 1007.8 |
| 20260505081822 | 55 | 203 | 1.0 | 4.0 | 0.00 | 0.00 | 0.00 | 69 | 1007.8 |
| 20260505081321 | 55 | 177 | 1.0 | 4.0 | 0.00 | 0.00 | 0.00 | 69 | 1007.9 |
| 20260505080822 | 55 | 226 | 0.0 | 4.0 | 0.00 | 0.00 | 0.00 | 69 | 1008.0 |
| 20260505080321 | 55 | 169 | 0.0 | 3.0 | 0.00 | 0.00 | 0.00 | 69 | 1008.0 |
| 20260505075823 | 55 | 173 | 0.0 | 2.0 | 0.00 | 0.00 | 0.00 | 69 | 1008.0 |
| 20260505075321 | 55 | 150 | 0.0 | 1.0 | 0.00 | 0.00 | 0.00 | 68 | 1008.0 |
| 20260505074820 | 55 | 136 | 0.0 | 2.0 | 0.00 | 0.00 | 0.00 | 68 | 1008.1 |
| 20260505074321 | 55 | 174 | 0.0 | 2.0 | 0.00 | 0.00 | 0.00 | 68 | 1008.1 |
| 20260505073821 | 55 | 143 | 0.0 | 1.0 | 0.00 | 0.00 | 0.00 | 68 | 1008.1 |
| 20260505073322 | 55 | 162 | 0.0 | 2.0 | 0.00 | 0.00 | 0.00 | 67 | 1008.1 |
| 20260505072819 | 55 | 158 | 1.0 | 3.0 | 0.00 | 0.00 | 0.00 | 67 | 1008.1 |
| 20260505072320 | 55 | 225 | 1.0 | 3.0 | 0.00 | 0.00 | 0.00 | 67 | 1008.1 |
| 20260505071317 | 56 | 138 | 1.0 | 3.0 | 0.00 | 0.00 | 0.00 | 67 | 1008.2 |
| 20260505070815 | 55 | 150 | 0.0 | 4.0 | 0.00 | 0.00 | 0.00 | 67 | 1008.2 |
| 20260505070315 | 55 | 167 | 0.0 | 4.0 | 0.00 | 0.00 | 0.00 | 67 | 1008.1 |
| 20260505065311 | 56 | 219 | 0.0 | 2.0 | 0.00 | 0.00 | 0.00 | 66 | 1008.2 |
| 20260505064807 | 56 | 202 | 0.0 | 3.0 | 0.00 | 0.00 | 0.00 | 65 | 1008.2 |
| 20260505063755 | 56 | 210 | 2.0 | 6.0 | 0.00 | 0.00 | 0.00 | 64 | 1008.2 |
| 20260505063247 | 56 | 209 | 3.0 | 6.0 | 0.00 | 0.00 | 0.00 | 64 | 1008.2 |
| 20260505062743 | 57 | 221 | 3.0 | 6.0 | 0.00 | 0.00 | 0.00 | 64 | 1008.2 |
| 20260505062235 | 57 | 202 | 2.0 | 6.0 | 0.00 | 0.00 | 0.00 | 64 | 1008.2 |
| 20260505061731 | 57 | 182 | 3.0 | 6.0 | 0.00 | 0.00 | 0.00 | 63 | 1008.2 |
| 20260505061223 | 57 | 195 | 3.0 | 5.0 | 0.00 | 0.00 | 0.00 | 63 | 1008.2 |
| 20260505060719 | 57 | 216 | 3.0 | 6.0 | 0.00 | 0.00 | 0.00 | 63 | 1008.3 |
| 20260505060215 | 57 | 200 | 2.0 | 8.0 | 0.00 | 0.00 | 0.00 | 63 | 1008.2 |
| 20260505055716 | 57 | 244 | 2.0 | 8.0 | 0.00 | 0.00 | 0.00 | 62 | 1008.3 |
| 20260505055216 | 57 | 204 | 3.0 | 11.0 | 0.00 | 0.00 | 0.00 | 62 | 1008.3 |
| 20260505054728 | 57 | 207 | 3.0 | 11.0 | 0.00 | 0.00 | 0.00 | 62 | 1008.3 |
| 20260505053718 | 58 | 80 | 3.0 | 10.0 | 0.00 | 0.00 | 0.00 | 61 | 1008.3 |
| 20260505053217 | 58 | 200 | 3.0 | 12.0 | 0.00 | 0.00 | 0.00 | 61 | 1008.3 |
| 20260505052716 | 58 | 221 | 4.0 | 12.0 | 0.00 | 0.00 | 0.00 | 61 | 1008.2 |
| 20260505051719 | 58 | 199 | 5.0 | 11.0 | 0.00 | 0.00 | 0.00 | 60 | 1008.3 |
| 20260505051216 | 58 | 203 | 3.0 | 8.0 | 0.00 | 0.00 | 0.00 | 60 | 1008.3 |
| 20260505050716 | 58 | 226 | 3.0 | 6.0 | 0.00 | 0.00 | 0.00 | 60 | 1008.3 |
| 20260505050217 | 58 | 169 | 4.0 | 8.0 | 0.00 | 0.00 | 0.00 | 59 | 1008.3 |
| 20260505041713 | 58 | 183 | 3.0 | 8.0 | 0.00 | 0.00 | 0.00 | 57 | 1008.3 |
| 20260505040712 | 59 | 227 | 3.0 | 7.0 | 0.00 | 0.00 | 0.00 | 57 | 1008.2 |
| 20260505040211 | 59 | 139 | 3.0 | 7.0 | 0.00 | 0.00 | 0.00 | 56 | 1008.2 |
| 20260505035710 | 59 | 229 | 4.0 | 8.0 | 0.00 | 0.00 | 0.00 | 56 | 1008.2 |
| 20260505035212 | 59 | 158 | 4.0 | 8.0 | 0.00 | 0.00 | 0.00 | 55 | 1008.2 |
| 20260505034712 | 59 | 219 | 3.0 | 7.0 | 0.00 | 0.00 | 0.00 | 55 | 1008.1 |
| 20260505034213 | 59 | 167 | 3.0 | 8.0 | 0.00 | 0.00 | 0.00 | 55 | 1008.2 |
| 20260505033709 | 60 | 172 | 4.0 | 9.0 | 0.00 | 0.00 | 0.00 | 54 | 1008.2 |
| 20260505033208 | 60 | 176 | 4.0 | 9.0 | 0.00 | 0.00 | 0.00 | 54 | 1008.1 |
| 20260505032208 | 60 | 205 | 3.0 | 7.0 | 0.00 | 0.00 | 0.00 | 54 | 1008.0 |
| 20260505031708 | 60 | 136 | 3.0 | 9.0 | 0.00 | 0.00 | 0.00 | 53 | 1008.1 |
| 20260505030211 | 60 | 185 | 4.0 | 9.0 | 0.00 | 0.00 | 0.00 | 52 | 1008.0 |
| 20260505025712 | 61 | 188 | 4.0 | 9.0 | 0.00 | 0.00 | 0.00 | 52 | 1008.0 |
| 20260505025207 | 61 | 190 | 3.0 | 8.0 | 0.00 | 0.00 | 0.00 | 51 | 1008.0 |
| 20260505024707 | 61 | 172 | 3.0 | 10.0 | 0.00 | 0.00 | 0.00 | 51 | 1008.0 |
| 20260505024208 | 61 | 165 | 3.0 | 10.0 | 0.00 | 0.00 | 0.00 | 51 | 1007.9 |
| 20260505023706 | 61 | 239 | 3.0 | 8.0 | 0.00 | 0.00 | 0.00 | 51 | 1008.1 |
| 20260505023205 | 61 | 246 | 3.0 | 8.0 | 0.00 | 0.00 | 0.00 | 51 | 1008.1 |
| 20260505022705 | 61 | 160 | 4.0 | 10.0 | 0.00 | 0.00 | 0.00 | 50 | 1008.1 |
| 20260505022205 | 61 | 155 | 4.0 | 10.0 | 0.00 | 0.00 | 0.00 | 50 | 1008.1 |
| 20260505021709 | 62 | 205 | 4.0 | 11.0 | 0.00 | 0.00 | 0.00 | 50 | 1008.0 |
| 20260505021206 | 62 | 191 | 3.0 | 11.0 | 0.00 | 0.00 | 0.00 | 49 | 1008.0 |
| 20260505020703 | 62 | 153 | 2.0 | 5.0 | 0.00 | 0.00 | 0.00 | 49 | 1008.1 |
| 20260505014701 | 63 | 151 | 3.0 | 10.0 | 0.00 | 0.00 | 0.00 | 48 | 1007.9 |
| 20260505014200 | 63 | 70 | 3.0 | 10.0 | 0.00 | 0.00 | 0.00 | 47 | 1007.8 |
| 20260505013706 | 63 | 211 | 4.0 | 8.0 | 0.00 | 0.00 | 0.00 | 47 | 1007.7 |
| 20260505013201 | 63 | 182 | 4.0 | 9.0 | 0.00 | 0.00 | 0.00 | 47 | 1007.6 |
| 20260505012157 | 64 | 160 | 5.0 | 9.0 | 0.00 | 0.00 | 0.00 | 46 | 1007.4 |
| 20260505011657 | 64 | 198 | 4.0 | 9.0 | 0.00 | 0.00 | 0.00 | 46 | 1007.3 |
| 20260505011158 | 64 | 186 | 4.0 | 12.0 | 0.00 | 0.00 | 0.00 | 45 | 1007.2 |
| 20260505010705 | 64 | 210 | 4.0 | 12.0 | 0.00 | 0.00 | 0.00 | 45 | 1007.1 |
| 20260505010157 | 64 | 153 | 4.0 | 13.0 | 0.00 | 0.00 | 0.00 | 44 | 1006.9 |
| 20260505004656 | 65 | 213 | 6.0 | 13.0 | 0.00 | 0.00 | 0.00 | 43 | 1006.6 |
| 20260505004157 | 65 | 257 | 6.0 | 12.0 | 0.00 | 0.00 | 0.00 | 42 | 1006.4 |
| 20260505003656 | 66 | 207 | 6.0 | 14.0 | 0.00 | 0.00 | 0.00 | 42 | 1006.3 |